sat.trackr.live / text

‹ back to catalog

STARLINK-5586

NORAD 55376 · 2023-013AX

PAYLOAD ACTIVE UNKNOWN

§ Identity

Operator
Country
US
Launch date
2023-01-26
Launch site
AFETR
Launch vehicle
Mass (kg)
RCS (m²)

Purposes: comms

External: N2YO · Heavens-Above · Gunter

§ Orbital elements

Epoch: 2026-05-25T04:59:11.224320Z

Period
94.27 min
Inclination
43.0018°
Eccentricity
0.0001250
Mean motion
15.27574669 rev/d
Perigee alt
482.2 km
Apogee alt
483.9 km
Semi-major
6,861.2 km
B*
4.7177e-5
RAAN
216.7374°
Arg perigee
271.7190°
Mean anomaly
88.3518°
Rev number
18,354

§ Raw data

STARLINK-55861 55376U 23013AX  26145.20776880  .00001036  00000+0  47177-4 0  99902 55376  43.0018 216.7374 0001250 271.7190  88.3518 15.27574669183545

JSON: /api/v1/satellites/55376 · /tle

For live sub-satellite position, see the globe view (requires WebGL).

§ Visibility from observer

Set your observer location to see the next 7 days of passes ≥ 10°. The values pass through the URL so the page stays shareable.

No JS? Fill the form by hand. The geolocation button needs JavaScript.